Location: Unspecified
(0.0000°N, 0.0000°E)
Time: 22:42:28
(UTC+00:00)

A-11 Canister half - Visible Passes

Search period start: 01 February 2015 00:00
Search period end: 11 February 2015 00:00
Orbit: 1516 x 1684 km, 47.2° (Epoch: 01 February)

Date Brightness Start Highest point End Pass type
(mag) Time Alt. Az. Time Alt. Az. Time Alt. Az.
04 Feb 10.8 20:25:41 10° N 20:25:42 10° N 20:25:42 10° N visible
05 Feb 10.5 20:03:12 10° N 20:04:50 14° NNE 20:04:50 14° NNE visible
06 Feb 10.3 19:40:47 10° N 19:44:07 16° NNE 19:44:07 16° NNE visible
06 Feb 11.0 21:42:11 10° NW 21:42:24 11° NW 21:42:24 11° NW visible
07 Feb 10.2 19:18:26 10° N 19:23:28 16° NE 19:23:35 16° NE visible
07 Feb 10.5 21:19:20 10° NW 21:21:53 21° NW 21:21:53 21° NW visible
08 Feb 10.2 18:56:11 10° NNE 19:00:29 15° NE 19:03:16 13° ENE visible
08 Feb 9.7 20:56:30 10° NW 21:01:36 38° NNW 21:01:36 38° NNW visible
09 Feb 10.3 18:34:05 10° NNE 18:37:30 13° NE 18:41:43 10° ENE visible
09 Feb 9.0 20:33:41 10° NW 20:41:35 65° N 20:41:35 65° N visible
10 Feb 8.8 20:10:52 10° NNW 20:20:07 69° NE 20:21:55 59° ESE visible
10 Feb 10.9 22:17:49 10° W 22:20:18 17° W 22:20:18 17° W visible
